#timestamp,LO_Frequency,Hit 
1504411215.3,286046991.1,N
1504411235.1,286046989.3,N
1504411255.9,286046991.0,N
1504411275.7,286046992.7,N
1504411295.5,286046991.2,N
1504411315.3,286046988.8,N
1504411335.2,286046993.2,N
1504411355.0,286046990.8,N
1504411355.9,286046990.8,N
1504411375.7,286046987.4,N
1504411395.6,286046987.4,N
1504411415.4,286046985.3,N
1504411435.2,286046992.8,N
1504411455.1,286046992.3,N
1504411456.0,286046992.3,N
1504411475.8,286046995.9,N
1504411495.6,286046995.9,N
1504411515.5,286046999.9,N
1504411535.3,286047002.6,N
1504411555.1,286046999.5,N
1504411575.9,286046999.2,N
1504411595.7,286046997.2,N
1504411615.5,286046995.6,N
1504411635.4,286046994.2,N
1504411655.2,286046994.3,N
1504411675.0,286046994.7,N
1504411675.9,286046994.7,N
1504411695.7,286046992.4,N
1504411715.6,286046993.0,N
1504411735.4,286046992.3,N
1504411755.2,286046992.3,N
1504411775.1,286046992.1,N
1504411776.0,286046992.1,N
1504411795.8,286046994.3,N
1504411815.6,286046992.8,N
1504411835.5,286046990.7,N
1504411855.3,286046992.8,N
1504411875.1,286046994.5,N
1504411895.9,286046995.5,N
1504411915.7,286046993.8,N
1504411935.5,286046992.2,N
1504411955.4,286046990.8,N
1504411975.2,286046990.6,P
1504411995.0,286046998.9,N
1504411995.9,286046998.9,N
1504412015.8,286046997.2,N
1504412035.6,286046993.5,N
1504412055.4,286046994.1,N
1504412075.3,286046993.5,N
1504412095.1,286046993.3,N
1504412096.0,286046993.3,N
1504412115.8,286046994.3,N
1504412135.7,286046994.7,N
1504412155.5,286046994.8,N
1504412175.3,286046994.6,N
1504412195.2,286046992.0,P
1504412215.9,286046997.0,N
1504412235.7,286046994.9,N
1504412255.6,286046995.7,N
1504412275.4,286046996.3,N
1504412295.2,286046999.4,N
1504412315.0,286046996.9,N
1504412315.9,286046996.9,N
1504412335.8,286047001.4,N
1504412355.6,286047005.9,N
1504412375.4,286047001.9,N
1504412395.3,286047003.0,N
1504412415.1,286047006.6,N
1504412435.8,286047006.5,N
1504412455.7,286047003.7,N
1504412475.5,286047010.5,N
1504412495.3,286047011.6,N
1504412515.2,286047007.7,N
1504412535.9,286047005.6,N
1504412555.7,286047003.6,N
1504412575.5,286047003.9,N
1504412595.4,286047003.4,N
1504412615.2,286047001.3,N
1504412635.0,286047005.8,N
1504412635.9,286047005.8,N
1504412655.8,286047005.4,N
1504412675.6,286047005.6,N
1504412695.4,286047003.5,N
1504412715.3,286047004.5,N
1504412735.1,286047004.6,N
1504412736.0,286047004.6,N
1504412755.8,286047007.2,N
1504412775.7,286047005.4,N
1504412795.5,286047007.9,N
1504412815.3,286047010.4,N
1504412835.2,286047008.3,N
1504412855.9,286047004.8,N
1504412875.7,286047005.4,N
1504412895.5,286047003.6,N
1504412915.4,286047005.3,N
1504412935.2,286047003.8,N
1504412955.0,286047003.6,N
1504412955.9,286047003.6,N
1504412975.8,286047000.9,N
1504412995.6,286047003.5,N
1504413015.4,286047006.4,N
1504413035.3,286047007.8,P
1504413055.1,286047002.3,N
1504413075.8,286047001.9,N
1504413095.7,286047002.2,N
1504413115.5,286047002.3,N
1504413135.3,286046996.9,N
1504413155.2,286046999.3,N
1504413175.9,286046999.4,N
1504413195.7,286046999.3,N
1504413215.6,286047001.8,N
1504413235.4,286047001.5,N
1504413255.2,286047004.4,N
1504413275.1,286047005.7,N
1504413276.0,286047005.7,N
1504413295.8,286047003.3,N
1504413315.6,286047003.7,N
1504413335.5,286047002.1,N
1504413355.3,286047001.1,N
1504413375.1,286047002.4,N
1504413395.8,286047000.9,N
1504413415.7,286046998.9,N
1504413435.5,286047001.1,N
1504413455.3,286047000.3,N
1504413475.2,286046999.9,N
1504413495.9,286046999.8,N
1504413515.7,286047002.0,N
1504413535.6,286047000.2,N
1504413555.4,286047000.2,N
1504413575.2,286046998.5,N
1504413595.1,286047002.0,N
1504413596.0,286047002.0,N
1504413615.8,286047005.9,N
1504413635.6,286047005.1,N
1504413655.5,286047006.9,P
1504413675.3,286047006.6,N
1504413695.1,286047009.0,P
1504413715.9,286047004.7,N
1504413735.7,286047002.1,N
1504413755.5,286046999.7,N
1504413775.3,286047001.5,N
1504413795.2,286046999.7,N
1504413815.0,286046998.8,N
1504413815.9,286046998.8,N
1504413835.7,286046997.3,N
1504413855.6,286046999.2,N
1504413875.4,286046996.7,N
1504413895.2,286046996.1,N
1504413915.1,286046996.2,N
1504413916.0,286046996.2,N
1504413935.8,286047001.1,N
1504413955.6,286046999.8,N
1504413975.5,286047000.1,N
1504413995.3,286046999.4,N
1504414015.1,286047006.0,N
1504414035.9,286047009.1,N
1504414055.7,286047010.8,N
1504414075.5,286047004.7,N
1504414095.3,286047004.2,N
1504414115.2,286047001.2,N
1504414135.0,286047002.2,N
1504414135.9,286047002.2,N
1504414155.7,286047006.3,N
1504414175.6,286047001.6,N
1504414195.4,286046999.1,N
1504414215.2,286047000.5,N
1504414235.1,286047007.3,N
1504414236.0,286047007.3,N
1504414255.8,286047006.9,N
1504414275.6,286047006.1,N
1504414295.5,286047005.2,N
1504414315.3,286047002.3,N
1504414335.1,286047001.7,N
1504414355.9,286047001.6,N
1504414375.7,286046998.2,N
1504414395.5,286046999.4,N
1504414415.4,286046999.3,N
1504414435.2,286046997.1,N
1504414455.0,286046999.4,N
1504414455.9,286046999.4,N
1504414475.7,286046998.9,N
1504414495.6,286046999.9,N
1504414515.4,286046999.4,N
1504414535.2,286046998.9,N
1504414555.1,286047001.3,N
1504414556.0,286047001.3,N
1504414575.8,286047009.5,N
1504414595.7,286047009.9,P
1504414615.5,286047010.1,N
1504414635.3,286047006.0,N
1504414655.1,286047004.8,N
1504414675.9,286047008.1,N
1504414695.7,286047009.7,P
1504414715.5,286047005.3,P
1504414735.4,286047003.5,N
1504414755.2,286047006.9,P
1504414775.1,286046996.7,P
1504414776.0,286046996.7,N
1504414795.8,286046997.0,N
